Flag for Germany Weather past 2 weeks in Fürstenfeldbruck, Bavaria, Germany

Now
30 °F

Light snow. Passing clouds.


Feels Like: 23 °F
Forecast: 32 / 34 °F
Wind: 8 mph from Southwest

Location: Oberpfaffenhofen

Current Time: Jan 26, 2015 at 10:06:27 PM

Latest Report: Jan 26, 2015 at 7:50 PM


Visibility: 3 mi

Pressure: 30.09 "Hg

Humidity: 86%

Dew point: 27 °F

Location of FürstenfeldbruckLocation

Historic Weather in Fürstenfeldbruck — Graph

°F

Fürstenfeldbruck temperature yesterday

Maximum temperature yesterday: 32 °F (at 12:50 PM)
Minimum temperature yesterday: 28 °F (at 10:50 AM)
Average temperature yesterday: 30 °F

Past Weeks' High & Low Weather Summary

 TemperatureHumidityPressure
High55 °F (Jan 13, 12:20 PM)100% (Jan 17, 10:20 AM)30.33 "Hg (Jan 17, 10:20 AM)
Low23 °F (Jan 19, 6:50 PM)18% (Jan 13, 12:20 PM)29.65 "Hg (Jan 16, 4:20 PM)
Average35 °F78%29.97 "Hg
* Reported Jan 11 7:20 PM — Jan 26 7:50 PM, Fürstenfeldbruck, Weather by CustomWeather, © 2014

Note: Actual official high and low records may vary slightly from our data, if they occured in-between our weather recording intervals... More about our weather records

Advertising

Fürstenfeldbruck weather history for previous 24 hours

 ConditionsComfort  
Time TempWeatherWind HumidityBarometerVisibility
7:50 PM
Jan 26
30 °FLight snow. Passing clouds.8 mph86%30.09 "Hg3 mi
7:20 PM30 °FSnow flurries. Passing clouds.10 mph86%30.09 "Hg5 mi
6:50 PM30 °FSnow flurries. Passing clouds.10 mph80%30.12 "Hg3 mi
6:20 PM30 °FClear.8 mph75%30.12 "Hg10 mi
5:50 PM30 °FSnow flurries. Partly cloudy.12 mph80%30.12 "HgN/A
5:20 PM30 °FLight snow. Passing clouds.7 mph75%30.15 "HgN/A
4:50 PM32 °FSunny.8 mph75%30.15 "Hg10 mi
4:20 PM32 °FSunny.6 mph69%30.15 "Hg10 mi
3:50 PM32 °FSunny.6 mph69%30.15 "Hg10 mi
3:20 PM34 °FSunny.6 mph65%30.15 "Hg10 mi
2:50 PM32 °FSunny.5 mph69%30.18 "Hg10 mi
2:20 PM32 °FSunny.7 mph69%30.18 "Hg10 mi
1:50 PM32 °FSunny.7 mph69%30.18 "Hg10 mi
1:20 PM32 °FPassing clouds.8 mph69%30.21 "HgN/A
12:50 PM32 °FPartly sunny.6 mph69%30.21 "HgN/A
12:20 PM32 °FPartly sunny.8 mph69%30.24 "HgN/A
11:50 AM32 °FPartly sunny.7 mph69%30.24 "HgN/A
11:20 AM30 °FPartly sunny.5 mph75%30.27 "HgN/A
10:50 AM30 °FPartly sunny.6 mph75%30.27 "HgN/A
10:20 AM28 °FPartly sunny.6 mph80%30.27 "HgN/A
9:50 AM28 °FPartly sunny.6 mph80%30.27 "HgN/A
9:20 AM28 °FPartly sunny.3 mph80%30.27 "HgN/A
8:50 AM28 °FPartly sunny.5 mph80%30.27 "HgN/A
8:20 AM28 °FPartly sunny.7 mph80%30.27 "HgN/A
7:50 AM27 °FPartly sunny.7 mph86%30.27 "HgN/A
7:20 AM27 °FPassing clouds.8 mph93%30.27 "HgN/A
6:50 AM27 °FLight snow. Passing clouds.8 mph93%30.27 "HgN/A
Weather by CustomWeather, © 2014

See weather overviewHow to use our weather pages